Simultaneous Nadir Overpasses (SNOs) Predictions

Prediction of SNOs between METOP-B and TERRA Satellite Orbit:

Table of predicted SNOs for the next 14.0 days since TLE Epoch: 5/30/2020
Index Date (METOP-B) Time (METOP-B) Lat,Lon (METOP-B) SZA (METOP-B ) Date (TERRA) Time (TERRA) Lat,Lon (TERRA) SZA (TERRA ) Distance(km) Time Diff (sec)
1 05/30/2020 07:10:37 -81.31, -60.58 117.57 05/30/2020 07:11:37 -81.31, -60.43 117.53 2.43 60
2 05/30/2020 08:01:16 81.32, 107.37 62.51 05/30/2020 08:01:03 81.32, 107.37 62.50 0.37 13
3 06/02/2020 02:44:58 -81.32, 6.10 117.93 06/02/2020 02:45:51 -81.32, 6.22 117.89 2.06 53
4 06/02/2020 03:35:37 81.32, 174.00 62.14 06/02/2020 03:35:17 81.33, 174.00 62.13 0.41 20
5 06/04/2020 22:19:19 -81.31, 72.37 118.29 06/04/2020 22:20:05 -81.31, 72.45 118.26 1.50 46
6 06/04/2020 23:09:58 81.32,-119.77 61.78 06/04/2020 23:09:31 81.31,-119.80 61.75 0.97 27
7 06/07/2020 17:53:40 -81.32, 139.02 118.55 06/07/2020 17:54:19 -81.32, 139.02 118.53 0.24 39
8 06/07/2020 18:44:19 81.32, -53.16 61.51 06/07/2020 18:43:45 81.32, -53.27 61.48 1.88 34
9 06/10/2020 13:28:01 -81.32,-154.34 118.76 06/10/2020 13:28:33 -81.32,-154.45 118.76 1.86 32




NCC Satellite Simultaneous Nadir Overpasses (SNOs) Prediction Service
